QPF
0.00 0.00 0.01 0.01 0.01 0.01 0.01 0.01 0.01 0.01 0.01 0.01 0.01 0.01 0.00 0.00 0.00 0.00 0.00 0.00 0.00 0.00 0.00 0.00 0.01 0.01 0.02 0.03 0.04 0.03 0.04 0.05 0.10 0.12 0.11 0.07 0.07 0.07 0.07 0.08 0.10 0.08 0.05
0.00 0.00 0.01 0.01 0.01 0.01 0.01 0.01 0.01 0.01 0.01 0.01 0.01 0.01 0.00 0.01 0.01 0.01 0.01 0.01 0.01 0.01 0.00 0.00 0.00 0.01 0.01 0.01 0.03 0.04 0.05 0.07 0.13 0.15 0.14 0.11 0.07 0.06 0.05 0.07 0.08 0.10 0.07
0.00 0.00 0.01 0.01 0.01 0.01 0.01 0.01 0.01 0.01 0.01 0.01 0.01 0.01 0.01 0.01 0.01 0.01 0.01 0.01 0.01 0.01 0.01 0.00 0.00 0.00 0.01 0.01 0.03 0.04 0.05 0.07 0.13 0.16 0.15 0.13 0.07 0.04 0.03 0.05 0.07 0.07 0.06
0.00 0.00 0.01 0.01 0.01 0.01 0.01 0.01 0.01 0.01 0.01 0.01 0.01 0.01 0.01 0.01 0.01 0.01 0.01 0.01 0.01 0.01 0.01 0.01 0.01 0.00 0.01 0.02 0.03 0.04 0.04 0.06 0.09 0.10 0.10 0.08 0.06 0.04 0.05 0.07 0.08 0.06 0.06
0.00 0.01 0.01 0.01 0.01 0.01 0.01 0.01 0.01 0.01 0.01 0.01 0.01 0.01 0.00 0.00 0.01 0.01 0.01 0.01 0.01 0.01 0.02 0.01 0.01 0.01 0.01 0.03 0.04 0.04 0.05 0.06 0.06 0.03 0.04 0.10 0.10 0.07 0.07 0.08 0.10 0.07 0.05
0.01 0.01 0.01 0.01 0.01 0.01 0.01 0.01 0.01 0.01 0.00 0.01 0.01 0.01 0.01 0.01 0.01 0.01 0.01 0.01 0.01 0.01 0.02 0.01 0.01 0.01 0.01 0.02 0.03 0.03 0.07 0.07 0.04 0.02 0.03 0.07 0.07 0.07 0.07 0.08 0.10 0.08 0.05
0.01 0.01 0.01 0.01 0.01 0.01 0.01 0.01 0.01 0.01 0.00 0.01 0.01 0.01 0.01 0.01 0.01 0.01 0.01 0.01 0.01 0.02 0.01 0.01 0.01 0.01 0.02 0.02 0.03 0.06 0.09 0.10 0.03 0.02 0.03 0.05 0.07 0.07 0.08 0.07 0.08 0.07 0.05
0.01 0.01 0.02 0.03 0.02 0.01 0.01 0.01 0.01 0.01 0.01 0.01 0.01 0.01 0.01 0.01 0.01 0.01 0.01 0.02 0.02 0.01 0.01 0.01 0.01 0.02 0.02 0.03 0.05 0.08 0.08 0.07 0.01 0.01 0.02 0.03 0.04 0.09 0.08 0.07 0.06 0.06 0.07
0.02 0.02 0.03 0.04 0.03 0.02 0.01 0.01 0.01 0.01 0.01 0.01 0.01 0.01 0.02 0.02 0.02 0.01 0.01 0.02 0.01 0.01 0.01 0.01 0.01 0.02 0.03 0.04 0.06 0.09 0.09 0.07 0.03 0.02 0.02 0.04 0.04 0.08 0.07 0.05 0.05 0.05 0.06
0.04 0.04 0.04 0.06 0.06 0.03 0.02 0.01 0.02 0.02 0.02 0.01 0.01 0.01 0.02 0.02 0.02 0.02 0.02 0.02 0.02 0.01 0.01 0.01 0.01 0.01 0.02 0.04 0.06 0.09 0.11 0.07 0.03 0.02 0.02 0.03 0.04 0.08 0.08 0.06 0.04 0.04 0.05
0.08 0.09 0.08 0.08 0.06 0.05 0.04 0.02 0.04 0.03 0.02 0.02 0.02 0.02 0.04 0.04 0.04 0.04 0.02 0.02 0.02 0.01 0.01 0.01 0.01 0.01 0.01 0.03 0.05 0.08 0.08 0.05 0.03 0.02 0.03 0.03 0.05 0.08 0.08 0.07 0.05 0.04 0.04
0.07 0.07 0.07 0.08 0.08 0.06 0.04 0.04 0.06 0.05 0.04 0.04 0.04 0.05 0.05 0.04 0.03 0.03 0.02 0.02 0.03 0.04 0.03 0.02 0.01 0.01 0.01 0.02 0.03 0.04 0.06 0.04 0.02 0.02 0.02 0.03 0.05 0.09 0.10 0.07 0.05 0.05 0.05
0.07 0.05 0.04 0.06 0.08 0.07 0.07 0.05 0.06 0.07 0.05 0.03 0.03 0.04 0.05 0.03 0.03 0.03 0.03 0.04 0.06 0.06 0.07 0.05 0.03 0.02 0.01 0.01 0.02 0.03 0.04 0.03 0.03 0.02 0.02 0.03 0.06 0.11 0.12 0.08 0.05 0.05 0.06
0.06 0.06 0.05 0.05 0.06 0.06 0.07 0.05 0.05 0.04 0.03 0.04 0.03 0.03 0.04 0.05 0.05 0.05 0.04 0.05 0.05 0.06 0.06 0.05 0.06 0.04 0.02 0.01 0.01 0.03 0.04 0.04 0.04 0.04 0.06 0.05 0.06 0.09 0.11 0.08 0.06 0.07 0.09
0.10 0.10 0.09 0.07 0.05 0.04 0.05 0.06 0.04 0.04 0.03 0.03 0.03 0.03 0.04 0.07 0.07 0.05 0.05 0.05 0.04 0.05 0.05 0.05 0.06 0.05 0.03 0.02 0.02 0.02 0.03 0.03 0.03 0.04 0.05 0.07 0.07 0.07 0.08 0.08 0.08 0.07 0.07
0.12 0.13 0.11 0.08 0.05 0.05 0.07 0.07 0.06 0.04 0.04 0.04 0.03 0.04 0.05 0.07 0.06 0.07 0.06 0.06 0.05 0.06 0.05 0.04 0.05 0.05 0.05 0.03 0.04 0.04 0.04 0.04 0.03 0.04 0.05 0.08 0.08 0.08 0.07 0.09 0.09 0.08 0.08
0.13 0.14 0.12 0.09 0.08 0.10 0.11 0.11 0.08 0.07 0.06 0.06 0.05 0.04 0.05 0.06 0.06 0.05 0.04 0.05 0.05 0.04 0.04 0.04 0.04 0.04 0.04 0.04 0.06 0.06 0.07 0.07 0.05 0.05 0.06 0.08 0.08 0.07 0.07 0.08 0.09 0.09 0.10
0.15 0.16 0.16 0.09 0.11 0.13 0.15 0.12 0.09 0.07 0.07 0.06 0.04 0.04 0.05 0.05 0.06 0.03 0.02 0.03 0.03 0.02 0.02 0.04 0.04 0.04 0.05 0.07 0.09 0.08 0.09 0.08 0.07 0.06 0.08 0.11 0.13 0.08 0.07 0.06 0.06 0.07 0.08
0.15 0.17 0.16 0.13 0.12 0.15 0.15 0.12 0.08 0.06 0.06 0.06 0.05 0.04 0.04 0.03 0.03 0.03 0.02 0.02 0.01 0.01 0.02 0.01 0.02 0.04 0.03 0.04 0.04 0.07 0.07 0.07 0.07 0.05 0.06 0.07 0.10 0.10 0.09 0.05 0.04 0.04 0.05
0.18 0.20 0.19 0.16 0.15 0.16 0.16 0.14 0.11 0.07 0.06 0.05 0.05 0.04 0.02 0.02 0.02 0.02 0.02 0.01 0.01 0.01 0.02 0.03 0.03 0.02 0.02 0.02 0.02 0.03 0.03 0.04 0.06 0.07 0.05 0.05 0.06 0.05 0.06 0.05 0.05 0.03 0.03
0.19 0.22 0.22 0.22 0.16 0.13 0.13 0.11 0.10 0.09 0.06 0.04 0.03 0.02 0.02 0.01 0.01 0.02 0.01 0.01 0.01 0.01 0.01 0.02 0.02 0.02 0.01 0.01 0.02 0.03 0.03 0.03 0.04 0.04 0.03 0.03 0.03 0.03 0.05 0.05 0.05 0.05 0.04
0.15 0.19 0.17 0.20 0.18 0.12 0.12 0.10 0.10 0.11 0.08 0.05 0.04 0.02 0.02 0.01 0.01 0.01 0.01 0.01 0.01 0.01 0.01 0.00 0.01 0.01 0.01 0.01 0.02 0.03 0.03 0.04 0.03 0.01 0.01 0.01 0.02 0.02 0.02 0.02 0.04 0.05 0.03
0.15 0.18 0.17 0.18 0.18 0.14 0.13 0.11 0.09 0.09 0.06 0.05 0.04 0.03 0.02 0.01 0.01 0.01 0.01 0.01 0.01 0.00 0.00 0.00 0.00 0.00 0.00 0.00 0.00 0.01 0.02 0.03 0.03 0.02 0.01 0.01 0.01 0.01 0.01 0.02 0.02 0.03 0.03
0.12 0.14 0.15 0.15 0.19 0.16 0.12 0.08 0.06 0.05 0.04 0.04 0.04 0.03 0.02 0.02 0.00 0.00 0.00 0.01 0.00 0.00 0.00 0.00 0.00 0.00 0.00 0.00 0.00 0.00 0.01 0.01 0.02 0.02 0.01 0.01 0.01 0.01 0.01 0.01 0.02 0.02 0.02
0.08 0.09 0.11 0.13 0.21 0.19 0.13 0.09 0.07 0.06 0.04 0.04 0.03 0.02 0.01 0.01 0.00 0.00 0.00 0.00 0.00 0.00 0.00 0.00 0.00 0.00 0.00 0.00 0.00 0.00 0.00 0.00 0.00 0.01 0.01 0.01 0.01 0.01 0.00 0.01 0.01 0.01 0.01
0.06 0.06 0.07 0.09 0.16 0.18 0.13 0.10 0.07 0.07 0.05 0.03 0.02 0.02 0.01 0.00 0.00 0.00 0.00 0.00 0.00 0.00 0.00 0.00 0.00 0.00 0.00 0.00 0.00 0.00 0.00 0.00 0.00 0.00 0.00 0.00 0.01 0.00 0.00 0.00 0.00 0.00 0.00
MSLP
1011.39 1011.50 1011.80 1012.24 1012.75 1013.23 1013.62 1013.88 1014.01 1014.07 1014.12 1014.21 1014.39 1014.67 1015.02 1015.40 1015.75 1016.01 1016.17 1016.21 1016.18 1016.13 1016.08 1016.09 1016.16 1016.27 1016.41 1016.54 1016.61 1016.63 1016.60 1016.55 1016.50 1016.50 1016.56 1016.70 1016.90 1017.14 1017.38 1017.60 1017.79 1017.94 1018.05
1011.09 1011.35 1011.80 1012.38 1012.99 1013.54 1013.95 1014.21 1014.32 1014.35 1014.35 1014.42 1014.58 1014.87 1015.23 1015.61 1015.96 1016.21 1016.34 1016.35 1016.28 1016.19 1016.14 1016.15 1016.24 1016.39 1016.57 1016.72 1016.82 1016.85 1016.81 1016.74 1016.67 1016.66 1016.74 1016.90 1017.14 1017.43 1017.73 1018.00 1018.22 1018.39 1018.52
1010.80 1011.20 1011.79 1012.49 1013.19 1013.81 1014.27 1014.54 1014.65 1014.66 1014.65 1014.70 1014.85 1015.12 1015.46 1015.83 1016.15 1016.37 1016.46 1016.44 1016.35 1016.25 1016.20 1016.23 1016.34 1016.53 1016.73 1016.91 1017.01 1017.03 1016.98 1016.89 1016.81 1016.80 1016.88 1017.07 1017.35 1017.68 1018.03 1018.34 1018.60 1018.80 1018.94
1010.55 1011.08 1011.78 1012.57 1013.36 1014.04 1014.54 1014.85 1014.97 1014.99 1014.98 1015.02 1015.16 1015.41 1015.73 1016.06 1016.35 1016.53 1016.59 1016.55 1016.46 1016.37 1016.33 1016.39 1016.53 1016.74 1016.95 1017.13 1017.22 1017.22 1017.15 1017.04 1016.96 1016.95 1017.04 1017.25 1017.56 1017.92 1018.30 1018.64 1018.93 1019.14 1019.30
1010.41 1011.02 1011.79 1012.66 1013.50 1014.23 1014.77 1015.11 1015.27 1015.31 1015.31 1015.36 1015.49 1015.72 1016.01 1016.30 1016.55 1016.71 1016.76 1016.72 1016.64 1016.57 1016.57 1016.66 1016.82 1017.03 1017.24 1017.40 1017.46 1017.44 1017.34 1017.22 1017.14 1017.13 1017.25 1017.48 1017.80 1018.18 1018.56 1018.91 1019.20 1019.43 1019.60
1010.38 1011.03 1011.84 1012.73 1013.60 1014.35 1014.92 1015.30 1015.49 1015.57 1015.61 1015.67 1015.80 1016.01 1016.27 1016.54 1016.76 1016.90 1016.95 1016.94 1016.89 1016.87 1016.91 1017.03 1017.21 1017.41 1017.59 1017.71 1017.74 1017.67 1017.56 1017.43 1017.35 1017.37 1017.51 1017.76 1018.09 1018.47 1018.84 1019.17 1019.45 1019.67 1019.85
1010.45 1011.10 1011.90 1012.79 1013.65 1014.40 1014.99 1015.40 1015.63 1015.75 1015.82 1015.91 1016.05 1016.25 1016.49 1016.74 1016.94 1017.09 1017.16 1017.18 1017.19 1017.23 1017.31 1017.46 1017.63 1017.82 1017.96 1018.02 1018.00 1017.90 1017.77 1017.65 1017.60 1017.65 1017.82 1018.09 1018.43 1018.79 1019.14 1019.44 1019.68 1019.88 1020.05
1010.60 1011.22 1011.98 1012.81 1013.64 1014.37 1014.96 1015.38 1015.66 1015.82 1015.93 1016.06 1016.21 1016.41 1016.64 1016.87 1017.08 1017.23 1017.33 1017.40 1017.47 1017.56 1017.69 1017.85 1018.03 1018.18 1018.27 1018.27 1018.20 1018.08 1017.94 1017.84 1017.83 1017.93 1018.14 1018.45 1018.80 1019.15 1019.46 1019.72 1019.92 1020.08 1020.23
1010.79 1011.34 1012.04 1012.80 1013.57 1014.26 1014.83 1015.27 1015.57 1015.78 1015.94 1016.10 1016.27 1016.48 1016.71 1016.93 1017.13 1017.29 1017.43 1017.54 1017.66 1017.80 1017.97 1018.14 1018.30 1018.42 1018.46 1018.42 1018.31 1018.16 1018.03 1017.97 1018.01 1018.17 1018.45 1018.79 1019.16 1019.51 1019.80 1020.01 1020.16 1020.28 1020.40
1010.97 1011.46 1012.07 1012.75 1013.44 1014.08 1014.63 1015.07 1015.40 1015.65 1015.85 1016.05 1016.25 1016.47 1016.69 1016.90 1017.10 1017.27 1017.42 1017.57 1017.73 1017.91 1018.09 1018.28 1018.42 1018.51 1018.51 1018.43 1018.30 1018.15 1018.04 1018.02 1018.12 1018.36 1018.69 1019.09 1019.49 1019.84 1020.12 1020.30 1020.41 1020.49 1020.57
1011.11 1011.55 1012.08 1012.68 1013.29 1013.87 1014.38 1014.81 1015.16 1015.45 1015.70 1015.93 1016.16 1016.39 1016.61 1016.82 1017.00 1017.17 1017.32 1017.49 1017.67 1017.86 1018.06 1018.24 1018.38 1018.45 1018.43 1018.33 1018.20 1018.06 1017.99 1018.02 1018.18 1018.48 1018.87 1019.32 1019.75 1020.13 1020.40 1020.58 1020.66 1020.71 1020.76
1011.22 1011.61 1012.08 1012.60 1013.13 1013.65 1014.12 1014.54 1014.91 1015.23 1015.52 1015.79 1016.05 1016.29 1016.50 1016.70 1016.87 1017.02 1017.16 1017.32 1017.50 1017.70 1017.90 1018.09 1018.22 1018.29 1018.27 1018.18 1018.06 1017.96 1017.92 1018.00 1018.21 1018.55 1018.99 1019.47 1019.94 1020.33 1020.62 1020.80 1020.89 1020.93 1020.96
1011.30 1011.66 1012.08 1012.53 1013.00 1013.46 1013.89 1014.30 1014.67 1015.02 1015.34 1015.65 1015.93 1016.19 1016.41 1016.59 1016.74 1016.87 1016.99 1017.13 1017.29 1017.48 1017.68 1017.86 1018.01 1018.09 1018.10 1018.04 1017.96 1017.90 1017.90 1018.00 1018.24 1018.61 1019.06 1019.56 1020.03 1020.44 1020.75 1020.95 1021.06 1021.11 1021.15
1011.36 1011.72 1012.10 1012.51 1012.92 1013.33 1013.72 1014.11 1014.48 1014.85 1015.20 1015.54 1015.85 1016.12 1016.34 1016.52 1016.65 1016.75 1016.85 1016.96 1017.10 1017.27 1017.46 1017.65 1017.81 1017.92 1017.97 1017.97 1017.94 1017.92 1017.96 1018.09 1018.32 1018.67 1019.10 1019.58 1020.04 1020.45 1020.78 1021.00 1021.14 1021.22 1021.28
1011.42 1011.79 1012.16 1012.53 1012.89 1013.26 1013.63 1014.00 1014.37 1014.74 1015.12 1015.47 1015.80 1016.09 1016.32 1016.49 1016.61 1016.70 1016.77 1016.85 1016.96 1017.10 1017.28 1017.48 1017.67 1017.82 1017.93 1017.99 1018.02 1018.05 1018.12 1018.24 1018.45 1018.75 1019.13 1019.55 1019.97 1020.35 1020.68 1020.93 1021.11 1021.23 1021.33
1011.48 1011.86 1012.23 1012.58 1012.93 1013.27 1013.61 1013.97 1014.33 1014.71 1015.09 1015.46 1015.81 1016.11 1016.34 1016.52 1016.63 1016.70 1016.75 1016.81 1016.89 1017.02 1017.18 1017.38 1017.59 1017.79 1017.95 1018.08 1018.18 1018.26 1018.34 1018.45 1018.62 1018.84 1019.13 1019.46 1019.81 1020.15 1020.45 1020.72 1020.93 1021.11 1021.25
1011.53 1011.93 1012.31 1012.66 1012.99 1013.33 1013.67 1014.02 1014.38 1014.75 1015.13 1015.50 1015.85 1016.15 1016.39 1016.57 1016.69 1016.75 1016.79 1016.83 1016.89 1016.99 1017.14 1017.33 1017.56 1017.79 1018.01 1018.20 1018.35 1018.47 1018.57 1018.67 1018.78 1018.92 1019.10 1019.32 1019.58 1019.85 1020.12 1020.38 1020.62 1020.84 1021.04
1011.54 1011.96 1012.35 1012.71 1013.06 1013.41 1013.76 1014.12 1014.49 1014.86 1015.22 1015.58 1015.91 1016.20 1016.44 1016.62 1016.74 1016.82 1016.85 1016.88 1016.93 1017.01 1017.14 1017.31 1017.54 1017.79 1018.04 1018.28 1018.48 1018.64 1018.75 1018.83 1018.89 1018.95 1019.03 1019.14 1019.29 1019.48 1019.71 1019.95 1020.21 1020.47 1020.72
1011.49 1011.92 1012.32 1012.71 1013.10 1013.49 1013.88 1014.27 1014.64 1015.01 1015.36 1015.69 1015.99 1016.26 1016.48 1016.66 1016.79 1016.87 1016.92 1016.95 1016.99 1017.05 1017.15 1017.31 1017.51 1017.76 1018.03 1018.29 1018.52 1018.71 1018.84 1018.91 1018.94 1018.93 1018.93 1018.94 1018.99 1019.10 1019.27 1019.48 1019.74 1020.02 1020.30
1011.35 1011.78 1012.20 1012.64 1013.09 1013.54 1013.99 1014.43 1014.83 1015.20 1015.53 1015.83 1016.09 1016.31 1016.51 1016.68 1016.81 1016.91 1016.98 1017.02 1017.06 1017.11 1017.19 1017.31 1017.48 1017.70 1017.96 1018.23 1018.48 1018.69 1018.83 1018.91 1018.92 1018.88 1018.81 1018.75 1018.72 1018.75 1018.86 1019.03 1019.27 1019.55 1019.85
1011.12 1011.54 1011.99 1012.47 1013.00 1013.54 1014.07 1014.58 1015.03 1015.41 1015.73 1015.99 1016.20 1016.38 1016.54 1016.69 1016.83 1016.95 1017.04 1017.11 1017.16 1017.21 1017.26 1017.35 1017.47 1017.65 1017.87 1018.12 1018.37 1018.59 1018.76 1018.85 1018.86 1018.81 1018.71 1018.60 1018.52 1018.49 1018.53 1018.66 1018.87 1019.13 1019.43
1010.82 1011.21 1011.68 1012.22 1012.83 1013.47 1014.11 1014.70 1015.21 1015.63 1015.94 1016.17 1016.33 1016.46 1016.58 1016.71 1016.85 1016.99 1017.12 1017.22 1017.30 1017.35 1017.40 1017.45 1017.53 1017.65 1017.83 1018.04 1018.27 1018.49 1018.67 1018.78 1018.82 1018.77 1018.67 1018.54 1018.42 1018.34 1018.33 1018.41 1018.57 1018.80 1019.07
1010.47 1010.84 1011.32 1011.91 1012.59 1013.34 1014.08 1014.77 1015.36 1015.82 1016.14 1016.34 1016.46 1016.55 1016.63 1016.74 1016.88 1017.04 1017.21 1017.37 1017.48 1017.56 1017.61 1017.63 1017.67 1017.74 1017.86 1018.02 1018.22 1018.43 1018.61 1018.75 1018.81 1018.79 1018.70 1018.57 1018.43 1018.32 1018.26 1018.29 1018.39 1018.57 1018.81
1010.15 1010.48 1010.95 1011.58 1012.33 1013.16 1014.00 1014.79 1015.45 1015.96 1016.29 1016.49 1016.58 1016.62 1016.68 1016.77 1016.91 1017.11 1017.32 1017.53 1017.70 1017.81 1017.87 1017.89 1017.89 1017.91 1017.98 1018.09 1018.25 1018.44 1018.62 1018.77 1018.85 1018.86 1018.79 1018.67 1018.53 1018.39 1018.30 1018.27 1018.32 1018.44 1018.62
1009.91 1010.20 1010.65 1011.28 1012.07 1012.96 1013.87 1014.73 1015.47 1016.02 1016.38 1016.57 1016.65 1016.67 1016.70 1016.77 1016.93 1017.14 1017.40 1017.66 1017.89 1018.05 1018.13 1018.16 1018.15 1018.13 1018.15 1018.22 1018.34 1018.50 1018.67 1018.82 1018.93 1018.96 1018.91 1018.81 1018.66 1018.51 1018.38 1018.30 1018.30 1018.36 1018.49
1009.81 1010.05 1010.46 1011.07 1011.85 1012.77 1013.72 1014.63 1015.40 1015.99 1016.38 1016.58 1016.64 1016.65 1016.66 1016.73 1016.88 1017.12 1017.42 1017.72 1018.00 1018.20 1018.32 1018.37 1018.36 1018.33 1018.31 1018.34 1018.43 1018.56 1018.72 1018.87 1018.98 1019.03 1019.00 1018.91 1018.76 1018.60 1018.45 1018.33 1018.28 1018.29 1018.37
Thickness
5799 5795 5783 5782 5780 5779 5778 5777 5775 5774 5771 5769 5767 5765 5764 5762 5761 5760 5759 5758 5757 5756 5756 5755 5755 5754 5753 5752 5752 5751 5749 5748 5746 5745 5743 5742 5741 5741 5740 5740 5740 5739 5737
5802 5794 5782 5780 5778 5777 5776 5774 5773 5771 5769 5766 5765 5763 5762 5760 5759 5758 5757 5756 5755 5754 5754 5753 5753 5752 5751 5751 5750 5749 5747 5746 5744 5743 5741 5740 5739 5738 5738 5738 5739 5737 5735
5800 5791 5781 5778 5776 5775 5773 5771 5770 5768 5766 5764 5762 5761 5760 5758 5758 5757 5756 5755 5754 5753 5752 5751 5751 5750 5749 5749 5748 5746 5745 5744 5742 5741 5740 5740 5738 5736 5736 5736 5735 5734 5733
5798 5789 5782 5775 5773 5772 5771 5769 5767 5765 5764 5762 5760 5758 5758 5756 5756 5755 5754 5753 5752 5751 5750 5749 5748 5748 5747 5746 5745 5744 5743 5742 5741 5741 5742 5741 5739 5734 5734 5733 5732 5732 5731
5794 5788 5779 5773 5771 5769 5768 5766 5765 5763 5761 5760 5758 5756 5756 5755 5754 5753 5752 5751 5750 5749 5748 5747 5746 5745 5744 5743 5742 5742 5741 5740 5739 5741 5742 5740 5737 5733 5732 5731 5730 5730 5729
5790 5785 5776 5770 5768 5766 5765 5764 5762 5760 5759 5757 5756 5754 5754 5753 5751 5750 5750 5749 5747 5746 5745 5744 5743 5742 5742 5741 5740 5739 5738 5738 5739 5743 5740 5738 5736 5732 5730 5729 5728 5728 5728
5787 5782 5774 5767 5765 5763 5762 5761 5759 5758 5757 5755 5754 5753 5752 5751 5750 5748 5747 5746 5745 5744 5742 5741 5740 5740 5739 5739 5738 5737 5736 5736 5742 5740 5738 5737 5733 5730 5728 5728 5727 5726 5726
5784 5780 5770 5764 5762 5760 5759 5758 5757 5756 5755 5753 5752 5751 5750 5749 5748 5746 5745 5744 5742 5741 5740 5739 5738 5737 5737 5736 5736 5735 5734 5735 5739 5739 5738 5735 5729 5727 5727 5726 5725 5725 5724
5781 5777 5769 5764 5760 5757 5756 5756 5755 5754 5752 5751 5750 5749 5748 5747 5746 5744 5743 5742 5740 5739 5737 5736 5736 5735 5734 5734 5734 5733 5733 5734 5739 5737 5736 5733 5727 5725 5725 5724 5723 5723 5723
5776 5774 5768 5764 5761 5758 5756 5753 5752 5751 5750 5749 5748 5747 5747 5746 5744 5743 5742 5740 5738 5737 5736 5735 5734 5733 5733 5732 5732 5731 5731 5732 5738 5735 5735 5730 5725 5723 5722 5722 5721 5721 5721
5768 5768 5767 5765 5760 5759 5757 5753 5751 5749 5748 5748 5747 5746 5746 5748 5747 5744 5742 5738 5737 5735 5734 5733 5732 5731 5731 5731 5731 5730 5730 5735 5736 5735 5732 5726 5723 5721 5720 5719 5719 5718 5719
5761 5763 5763 5763 5760 5759 5758 5754 5752 5752 5749 5750 5749 5748 5748 5747 5747 5745 5739 5737 5735 5734 5733 5732 5731 5730 5732 5734 5732 5730 5734 5734 5734 5732 5728 5723 5721 5719 5718 5717 5717 5716 5716
5761 5760 5760 5759 5758 5758 5756 5754 5753 5751 5749 5750 5748 5747 5746 5746 5746 5745 5743 5739 5737 5735 5736 5733 5733 5735 5735 5734 5734 5734 5732 5733 5733 5732 5727 5721 5719 5718 5716 5715 5715 5714 5714
5758 5756 5757 5756 5755 5754 5754 5753 5751 5751 5750 5750 5746 5746 5745 5745 5744 5744 5742 5742 5739 5738 5736 5736 5734 5733 5732 5731 5731 5730 5729 5730 5731 5729 5723 5720 5718 5716 5715 5714 5713 5713 5713
5754 5752 5753 5753 5751 5750 5750 5750 5751 5750 5751 5748 5746 5744 5744 5744 5744 5743 5741 5739 5740 5739 5737 5734 5734 5732 5731 5730 5730 5729 5728 5727 5728 5727 5723 5718 5716 5715 5714 5713 5712 5711 5711
5751 5749 5750 5748 5748 5747 5747 5748 5748 5749 5746 5748 5746 5744 5742 5743 5742 5741 5740 5738 5738 5737 5737 5735 5734 5733 5733 5732 5730 5728 5727 5726 5724 5723 5723 5718 5716 5714 5713 5712 5711 5711 5710
5747 5745 5745 5745 5745 5744 5745 5745 5746 5746 5746 5745 5744 5741 5740 5740 5738 5739 5740 5738 5738 5736 5734 5734 5733 5733 5733 5733 5730 5729 5728 5725 5725 5723 5723 5721 5718 5715 5713 5712 5711 5710 5710
5744 5742 5742 5744 5742 5741 5742 5742 5743 5744 5742 5742 5741 5740 5738 5737 5736 5736 5739 5739 5736 5736 5736 5735 5735 5734 5734 5733 5731 5730 5728 5725 5724 5723 5723 5721 5719 5719 5715 5712 5711 5710 5710
5742 5740 5738 5740 5739 5738 5738 5738 5740 5739 5738 5738 5738 5738 5736 5735 5735 5736 5738 5737 5735 5737 5737 5737 5736 5735 5733 5732 5732 5729 5729 5727 5724 5724 5723 5722 5720 5719 5718 5714 5713 5711 5710
5741 5738 5736 5735 5735 5734 5734 5734 5735 5735 5735 5735 5735 5734 5734 5734 5734 5736 5736 5734 5736 5737 5735 5734 5732 5731 5732 5732 5734 5732 5730 5729 5727 5726 5725 5724 5722 5721 5720 5719 5716 5713 5712
5737 5734 5733 5731 5731 5731 5731 5731 5730 5730 5732 5733 5732 5732 5732 5733 5733 5733 5736 5733 5734 5735 5734 5734 5732 5731 5732 5732 5731 5729 5730 5732 5730 5728 5728 5727 5726 5723 5722 5720 5719 5718 5715
5735 5733 5732 5730 5730 5730 5730 5731 5730 5730 5731 5732 5731 5730 5730 5731 5731 5733 5733 5734 5733 5732 5731 5731 5730 5733 5733 5731 5730 5728 5724 5725 5727 5733 5730 5728 5728 5726 5725 5723 5721 5718 5718
5734 5733 5733 5730 5728 5728 5728 5728 5727 5726 5727 5727 5727 5728 5729 5729 5730 5730 5730 5732 5731 5734 5733 5730 5730 5729 5730 5731 5732 5730 5724 5722 5726 5730 5730 5730 5728 5727 5727 5725 5723 5721 5719
5736 5735 5732 5730 5727 5726 5726 5727 5726 5725 5725 5726 5727 5728 5727 5727 5728 5728 5728 5728 5729 5732 5730 5731 5731 5731 5729 5730 5730 5729 5729 5729 5725 5725 5728 5731 5729 5727 5728 5727 5726 5722 5720
5737 5735 5732 5729 5727 5725 5725 5726 5725 5726 5726 5727 5727 5725 5725 5726 5726 5727 5727 5727 5727 5729 5729 5728 5728 5729 5731 5730 5731 5730 5728 5727 5727 5724 5723 5726 5728 5729 5728 5726 5726 5724 5722
5737 5735 5732 5729 5726 5725 5724 5725 5725 5724 5724 5724 5723 5723 5724 5726 5726 5726 5726 5725 5726 5727 5726 5726 5726 5727 5728 5727 5729 5730 5728 5727 5727 5726 5723 5723 5725 5728 5727 5726 5725 5724 5722